Location: Luz Observatory
(34.5000°N, 117.2833°W)
Time: 04:27:11
(UTC-08:00)

Daily predictions for brighter satellites

Satellite Brightness Start Highest point End
(mag) Time Altitude Azimuth Time Altitude Azimuth Time Altitude Azimuth
USA 215 3.6 03:55:34 10° NE 04:02:02 62° SE 04:03:49 46° S
Cosmos 2181 Rocket 4.3 04:10:29 56° S 04:10:29 56° S 04:15:19 10° S
Cosmos 921 Rocket 4.4 04:11:05 38° E 04:11:05 38° E 04:14:59 10° SE
CENTAUR R/B 4.3 04:14:51 18° N 04:14:51 18° N 04:16:56 10° NNE
Lacrosse 5 2.4 04:14:07 56° E 04:14:07 56° E 04:18:29 10° NE
Cosmos 1603 4.1 04:11:08 34° S 04:13:32 62° ESE 04:19:08 10° NNE
Timation 1 Rocket 4.4 04:28:14 59° SW 04:28:14 59° SW 04:33:26 10° S
Meteor 1-18 Rocket 4.2 04:29:57 41° N 04:32:10 90° WSW 04:38:05 10° S
Feng Yun 1-1 Rocket 4.0 04:27:47 10° N 04:33:22 78° WNW 04:38:46 10° SSW
Meteor 1-20 Rocket 4.0 04:29:19 10° SSW 04:34:54 78° W 04:40:25 10° N
Cosmos 1943 4.4 04:32:23 10° S 04:37:38 42° ESE 04:42:54 10° NE
Gbstr 26 Del rocket 4.1 04:40:48 34° S 04:40:48 34° S 04:43:28 10° SSE
Cosmos 2297 4.5 04:42:52 35° SW 04:42:52 35° SW 04:46:42 10° S
Centaur D-1AR AC-39 4.0 04:42:21 16° SSW 04:42:26 16° SSW 04:45:06 10° SSE
Tiangong 2 3.9 04:44:45 13° NE 04:44:45 13° NE 04:45:18 10° NE
NOAA 6 4.1 04:39:48 10° NNE 04:44:56 79° ESE 04:50:04 10° S
Cosmos 1300 Rocket 3.9 04:40:47 10° S 04:45:10 66° E 04:49:33 10° NNE
Cosmos 1633 3.6 04:44:45 10° SSE 04:48:14 45° E 04:51:44 10° NNE
GPS 2-05 Rocket1 3.1 04:52:54 67° SE 04:52:54 67° SE 04:56:05 10° ESE
BREEZE-M DEB (TANK) 3.7 04:55:05 47° WSW 04:56:21 72° NW 05:07:51 10° NE
SL-08 ROCKET BODY 4.5 04:53:00 10° SSW 04:58:45 49° W 05:04:28 10° N
SL-16 R/B 4.4 05:03:59 10° NNW 05:03:59 10° NNW 05:04:00 10° NNW
Cosmos 1812 4.4 05:04:49 20° SSW 05:04:49 20° SSW 05:06:15 10° SSW
Cosmos 1602 3.7 04:59:06 10° S 05:03:03 89° E 05:07:01 10° N
OAO 3 Copernicus 4.2 05:03:50 43° W 05:05:31 86° N 05:10:38 10° E
Thor Agena Rocket 4.1 05:02:11 10° SSW 05:06:27 33° WSW 05:06:27 33° WSW
Cosmos 44 3.5 05:04:18 10° SSW 05:09:41 85° ESE 05:14:58 10° NNE
USA 229 DEB 4.3 05:03:30 10° SSW 05:10:13 59° ESE 05:17:00 10° NE
USA 229 4.3 05:03:37 10° SSW 05:10:19 59° ESE 05:17:06 10° NE
Okean 1 3.6 05:11:39 43° W 05:11:47 43° W 05:15:35 10° SSW
Cosmos 2074 Rocket 4.3 05:06:29 10° SSW 05:12:18 40° W 05:18:08 10° N
ASTRO E2 4.2 05:11:36 16° SW 05:14:09 32° SSE 05:17:45 10° E
SKYMED 2 3.5 05:10:23 10° SSE 05:14:42 87° WSW 05:19:04 10° NNW
Abrixas rocket 3.6 05:16:06 26° N 05:16:06 26° N 05:18:26 10° NNE
Meteor 1-19 Rocket 4.5 05:10:01 10° N 05:15:51 74° E 05:21:35 10° SSE
Cosmos 2341 Rocket 4.1 05:11:47 10° S 05:18:04 81° E 05:24:21 10° N
Cosmos 2056 Rocket 3.3 05:14:22 16° NNW 05:18:25 73° WSW 05:23:29 10° S
Meteor 1-28 Rocket 4.1 05:15:07 10° SSE 05:18:47 50° ENE 05:22:28 10° N
Meteor 2-13 Rocket 4.4 05:13:24 10° S 05:19:33 78° W 05:25:44 10° N
Meteor 1-11 Rocket 3.7 05:14:25 10° SSW 05:20:18 76° W 05:26:04 10° N
Cosmos 1346 Rocket 3.3 05:22:48 32° WNW 05:23:33 35° W 05:27:10 10° SSW
DMSP B5D1-3 4.5 05:25:04 10° S 05:30:12 79° WSW 05:35:23 10° NNW
Ariane Rocket 2.9 05:26:54 10° N 05:31:56 69° WNW 05:36:56 10° SSW
Cosmos 1624 Rocket 4.3 05:27:43 15° NNW 05:31:56 48° WSW 05:37:01 10° S
Meteor 1-13 Rocket 4.4 05:29:22 10° NNW 05:35:13 60° W 05:41:01 10° S
PSLV R/B 3.2 05:35:20 26° WNW 05:37:08 79° NNE 05:40:30 10° ESE
Meteor 1-23 Rocket 4.4 05:37:11 10° N 05:42:45 77° E 05:48:18 10° SSE
CZ-3 R/B 2.5 05:32:50 10° WSW 05:43:20 38° S 05:46:59 10° ESE
SL-24 R/B 4.4 05:39:00 10° N 05:44:09 59° WNW 05:48:34 10° SSW
CSL-04 Rocket 3.7 05:38:42 10° N 05:44:13 69° WNW 05:49:38 10° SSW
USA 215 3.8 05:38:55 10° NNE 05:44:44 36° NW 05:50:33 10° W
Cosmos 2154 Rocket 4.3 05:39:28 10° SSW 05:45:20 44° W 05:51:14 10° N
CZ-2C R/B 3.6 05:40:28 10° NNE 05:45:26 47° E 05:50:15 10° S
Cosmos 1025 Rocket 3.0 05:41:04 10° N 05:45:28 87° W 05:49:48 10° S
YAOGAN 1 4.0 05:44:13 10° NNE 05:48:19 42° E 05:52:25 10° S
CSL-04 Debris 4.1 05:43:23 10° N 05:48:50 74° WNW 05:54:18 10° SSW
Meteor 2-4 Rocket 3.7 05:47:40 10° NNW 05:53:12 72° W 05:58:52 10° S
IDEFIX/ARIANE 42P 3.4 05:48:20 10° NNE 05:53:26 55° E 05:58:30 10° S
Cosmos 1536 3.4 05:50:55 10° SW 05:54:31 33° W 05:58:10 10° NNW
CZ-4 R/B 1.4 05:52:11 10° NNE 05:56:08 82° ESE 06:00:00 10° S
Lacrosse 5 3.1 05:53:24 12° W 05:56:46 22° NW 06:00:42 10° NNE
Okean 1 Rocket 4.2 05:53:35 10° SW 05:57:01 22° WNW 06:00:26 10° NNW
Meteor 1-5 Rocket 4.0 05:53:55 10° SSW 05:59:17 72° W 06:04:35 10° N
Cosmos 1544 Rocket 3.5 05:55:39 10° S 06:00:00 89° WNW 06:04:23 10° N
Cosmos 2369 Rocket 2.2 05:54:20 10° NNW 06:00:01 68° WSW 06:05:39 10° S
Meteor 2-19 Rocket 4.5 05:55:39 10° S 06:01:47 88° W 06:07:55 10° N
COSMO-SKYMED 1 3.8 05:59:27 10° SSW 06:02:52 23° W 06:06:18 10° NW
SJ-12 3.9 06:03:29 10° N 06:07:40 82° W 06:11:48 10° SSW
Cosmos 1452 Rocket 3.6 06:02:30 10° NNW 06:07:43 62° WSW 06:12:54 10° S
Meteor 2-8 Rocket 4.5 06:03:08 10° N 06:09:19 79° W 06:15:27 10° S
AQUARIUS 4.2 06:09:05 10° N 06:13:36 86° W 06:18:05 10° SSW
SL-8 Rocket 4.1 06:10:19 10° SSW 06:16:27 56° W 06:22:34 10° N
Lacrosse 4 Rocket 3.0 06:13:19 10° N 06:17:03 32° ENE 06:20:42 10° SE
Cosmos 1943 4.2 06:17:23 10° WSW 06:21:48 23° WNW 06:26:15 10° N
